{"data":{"norad_id":57974,"intl_designator":"2023-151L","name":"STARLINK-30489","alt_names":[],"object_type":"PAYLOAD","status":"ACTIVE","operator":null,"country":"US","launch_date":"2023-09-30","launch_site_code":"AFETR","launch_vehicle":null,"mission":null,"orbit_class":"UNKNOWN","rcs_meters":null,"size_class":null,"mass_kg":null,"dimensions":null,"purposes":["comms"],"wikipedia_slug":null,"has_3d_model":false,"image_url":null,"decayed_at":null,"tle_current":{"epoch":"2026-05-25T00:59:52.315872Z","epoch_age_seconds":67484,"freshness":"FRESH","line1":"1 57974U 23151L   26145.04157773 -.00000688  00000+0 -15447-4 0  9994","line2":"2 57974  43.0042 264.7843 0001809 274.1896  85.8749 15.27593409147442","mean_motion":15.27593409,"eccentricity":0.0001809,"inclination_deg":43.0042,"raan_deg":264.7843,"arg_perigee_deg":274.1896,"mean_anomaly_deg":85.8749,"bstar":-1.5447e-5,"rev_number":14744,"period_min":94.265921253396,"perigee_km":481.76776366205,"apogee_km":484.25012626494,"semimajor_km":6861.1459449635,"source":"CELESTRAK","updated_at":"2026-05-25T13:38:18.486588Z"}}}